[[{"header":{"parameterUnit":"m.s-1","parameterCategory":1,"la1":30.2991,"la2":30.254,"lo1":-89.0895,"lo2":-89.0444,"dy":0.0017,"dx":0.0017,"nx":28,"ny":28,"refTime":"2024-08-20T09:00:00:Z","depth":0,"parameterNumber":2,"parameterNumberName":"U-component_of_WINDS"},"data":[0,0,0,0,0,0,0,0,0,0,0,0,0,0,0,0,0,0,0,0,0,0,0,0,0,0,0,0,0,0,0,0,0,0,0,0,0,0,0,0,0,0,0,0,0,0,0,0,0,0,0,0,0,0,0,0,0,0,-0.9389,-0.9389,0,-0.9439,-0.944,-0.944,-0.9447,-0.9447,-0.9447,-0.9446,-0.9497,-0.9499,-0.95,0,0,0,0,0,0,0,0,0,0,0,0,0,-0.9297,-0.9299,-0.9389,-0.9389,-0.939,-0.9439,-0.944,-0.9441,-0.9448,-0.9447,-0.9446,-0.9446,-0.9496,-0.9498,-0.95,0,0,0,0,0,0,0,0,0,0,0,0,0,-0.9341,-0.9299,-0.9389,-0.9399,-0.9401,-0.9439,-0.944,-0.9441,-0.9448,-0.9447,-0.9446,-0.9446,-0.9495,-0.9498,-0.9501,-0.9531,0,0,-0.9509,-0.951,0,0,0,0,0,0,0,0,-0.9339,-0.9345,-0.9397,-0.9399,-0.9401,-0.9436,-0.9426,-0.9471,-0.9448,-0.943,-0.9446,-0.9445,-0.9477,-0.9481,-0.9492,-0.9534,-0.9536,-0.9509,-0.9511,-0.9512,-0.9513,0,0,0,0,0,0,0,-0.9336,-0.9343,-0.9409,-0.9398,-0.94,-0.9401,-0.9407,-0.9435,-0.9457,-0.9431,-0.9432,-0.9438,-0.9478,-0.949,-0.9494,-0.9537,-0.9509,-0.9511,-0.9513,-0.9514,-0.9606,-0.9607,0,0,0,0,0,0,-0.9331,-0.934,-0.9407,-0.941,-0.9367,-0.9404,-0.941,-0.9426,-0.9457,-0.9461,-0.9439,-0.9438,-0.9485,-0.949,-0.9495,-0.9534,-0.9512,-0.9514,-0.9516,-0.9605,-0.9606,-0.9607,0,0,0,0,0,0,-0.9329,-0.9337,-0.9405,-0.9375,-0.9384,-0.9406,-0.9424,-0.9427,-0.9439,-0.9462,-0.9466,-0.9447,-0.9485,-0.9492,-0.9522,-0.9536,-0.9516,-0.9518,-0.9604,-0.9605,-0.9607,-0.961,0,0,0,0,0,0,-0.9326,-0.9336,-0.9348,-0.9376,-0.9386,-0.9432,-0.9424,-0.9428,-0.9443,-0.9443,-0.9471,-0.9474,-0.9485,-0.9518,-0.9525,-0.9539,-0.952,-0.9603,-0.9605,-0.9606,-0.9609,-0.9612,-0.9614,0,0,0,0,0,-0.9323,-0.9347,-0.9349,-0.9357,-0.9401,-0.9433,-0.9438,-0.945,-0.9444,-0.9457,-0.9472,-0.9474,-0.9533,-0.9522,-0.9529,-0.9544,-0.9602,-0.9604,-0.9606,-0.9608,-0.9611,-0.9614,0,0,0,0,0,0,-0.932,-0.9351,-0.9353,-0.9387,-0.9407,-0.9434,-0.945,-0.9453,-0.9475,-0.9474,-0.9488,-0.9494,-0.9524,-0.9537,-0.9524,-0.9575,-0.9567,-0.957,-0.9566,-0.9569,-0.9571,-0.9568,-0.9522,0,0,0,0,0,-0.9324,-0.9347,-0.9372,-0.9399,-0.9409,-0.9428,-0.9442,-0.9449,-0.9471,-0.9479,-0.9496,-0.9517,-0.954,-0.9555,-0.9578,-0.9611,-0.9617,-0.9625,-0.9627,-0.9628,-0.9632,-0.965,-0.9654,-0.9613,-0.9613,-0.9613,0,0,-0.9331,-0.935,-0.9364,-0.9399,-0.9416,-0.9439,-0.9435,-0.946,-0.9477,-0.9483,-0.9513,-0.9526,-0.955,-0.9582,-0.9597,-0.9594,-0.9644,-0.9631,-0.9632,-0.9634,-0.9653,-0.9656,-0.966,-0.9614,-0.9614,-0.9614,0,0,-0.9356,-0.9373,-0.9398,-0.9414,-0.944,-0.9452,-0.9458,-0.9484,-0.9493,-0.9524,-0.9529,-0.9549,-0.9589,-0.9606,-0.962,-0.9651,-0.9653,-0.9658,-0.967,-0.9688,-0.9691,-0.9694,-0.9706,-0.971,-0.966,-0.966,-0.966,0,-0.9361,-0.9397,-0.941,-0.9435,-0.945,-0.9456,-0.9482,-0.9497,-0.9528,-0.9539,-0.9534,-0.9584,-0.9601,-0.9637,-0.9645,-0.9656,-0.9663,-0.9655,-0.9689,-0.9693,-0.9695,-0.9707,-0.9711,-0.9661,-0.9661,-0.9661,-0.9661,0,-0.9403,-0.9428,-0.9445,-0.9475,-0.9493,-0.9517,-0.9533,-0.9549,-0.9555,-0.9567,-0.9599,-0.9618,-0.9645,-0.9654,-0.966,-0.9692,-0.9689,-0.9687,-0.9679,-0.97,-0.971,-0.9715,-0.9661,-0.9661,-0.9661,-0.9661,0,0,-0.9429,-0.9466,-0.9472,-0.9486,-0.9514,-0.9533,-0.9558,-0.9585,-0.9598,-0.9619,-0.9641,-0.9674,-0.9673,-0.9688,-0.9696,-0.9712,-0.9736,-0.9708,-0.9709,-0.9713,-0.9772,-0.9774,-0.9779,-0.9737,-0.9738,-0.9739,-0.977,0,-0.9457,-0.9503,-0.9515,-0.9553,-0.9576,-0.9583,-0.9604,-0.9624,-0.9636,-0.9657,-0.967,-0.9694,-0.969,-0.9699,-0.9715,-0.973,-0.9748,-0.9727,-0.9758,-0.9759,-0.9752,-0.9785,-0.9787,-0.9816,-0.9775,-0.9775,-0.9776,0,-0.9498,-0.952,-0.9561,-0.9587,-0.9597,-0.9616,-0.9642,-0.9662,-0.9684,-0.9691,-0.9709,-0.9715,-0.9741,-0.9731,-0.9767,-0.9753,-0.9766,-0.9775,-0.9776,-0.978,-0.9769,-0.979,-0.9825,-0.983,-0.9783,-0.9782,-0.9782,0,-0.9513,-0.9553,-0.9583,-0.9595,-0.9625,-0.9639,-0.9652,-0.9673,-0.9689,-0.9711,-0.9721,-0.9745,-0.9759,-0.9778,-0.979,-0.9782,-0.9825,-0.9817,-0.9833,-0.9832,-0.9842,-0.9842,-0.9881,-0.9849,-0.9849,-0.9849,-0.9849,0,-0.9544,-0.9569,-0.959,-0.9609,-0.9637,-0.965,-0.9677,-0.969,-0.971,-0.973,-0.9737,-0.9756,-0.9771,-0.9793,-0.9802,-0.9831,-0.9837,-0.9844,-0.9846,-0.9844,-0.9843,-0.9853,-0.9852,-0.985,-0.985,-0.985,-0.985,0,-0.9566,-0.9582,-0.9615,-0.9641,-0.9648,-0.9667,-0.969,-0.9708,-0.972,-0.9746,-0.9753,-0.9772,-0.9797,-0.9812,-0.9843,-0.985,-0.9882,-0.9883,-0.9875,-0.9876,-0.9892,-0.989,-0.9939,-0.9947,-0.991,-0.991,-0.991,0,-0.9586,-0.9605,-0.9634,-0.9648,-0.9662,-0.9685,-0.9701,-0.9715,-0.9731,-0.9757,-0.9772,-0.9798,-0.982,-0.986,-0.9877,-0.9901,-0.9903,-0.9918,-0.9907,-0.9904,-0.9904,-0.9903,-0.9905,-0.9921,-0.9921,-0.9921,-0.9922,0,-0.9619,-0.9626,-0.9649,-0.9674,-0.9693,-0.9714,-0.9734,-0.9745,-0.9762,-0.978,-0.9806,-0.9823,-0.9856,-0.9881,-0.9907,-0.992,-0.9924,-0.9925,-0.993,-0.9928,-0.9923,-0.9927,-0.9881,-0.9924,-0.9924,-0.9924,-0.9923,-0.9923,-0.9641,-0.9659,-0.9682,-0.9707,-0.9724,-0.9743,-0.9761,-0.9775,-0.9798,-0.9826,-0.9832,-0.986,-0.9882,-0.9917,-0.993,-0.9952,-0.9949,-0.9957,-0.9959,-0.996,-0.9961,-0.9919,-0.9957,-0.9957,-0.9957,-0.9957,-0.9957,0,-0.9675,-0.969,-0.9713,-0.9742,-0.9762,-0.9763,-0.9786,-0.9802,-0.9827,-0.9847,-0.9868,-0.9898,-0.9923,-0.9942,-0.9967,-0.9981,-0.9983,-0.9987,-0.9987,-0.999,-0.9962,-0.9956,-0.9985,-0.9985,-0.9985,-0.9985,-0.9985,-0.9985,-0.9695,-0.9726,-0.9735,-0.9773,-0.9788,-0.9816,-0.9829,-0.9846,-0.9862,-0.9896,-0.9917,-0.9929,-0.9948,-0.9975,-0.9998,-1.0003,-1.0012,-1.0016,-1.0021,-0.9995,-0.9992,-0.9989,-0.9983,-1.0018,-1.0018,-1.0047,-1.0047,-1.0048]},{"header":{"parameterUnit":"m.s-1","parameterCategory":1,"la1":30.2991,"la2":30.254,"lo1":-89.0895,"lo2":-89.0444,"dy":0.0017,"dx":0.0017,"nx":28,"ny":28,"refTime":"2024-08-20T09:00:00:Z","depth":0,"parameterNumber":3,"parameterNumberName":"V-component_of_WINDS"},"data":[0,0,0,0,0,0,0,0,0,0,0,0,0,0,0,0,0,0,0,0,0,0,0,0,0,0,0,0,0,0,0,0,0,0,0,0,0,0,0,0,0,0,0,0,0,0,0,0,0,0,0,0,0,0,0,0,0,0,-2.6502,-2.6502,0,-2.6521,-2.6521,-2.6522,-2.6495,-2.6495,-2.6494,-2.6493,-2.651,-2.6511,-2.6513,0,0,0,0,0,0,0,0,0,0,0,0,0,-2.6439,-2.6441,-2.6502,-2.6502,-2.6502,-2.6521,-2.6522,-2.6522,-2.6496,-2.6495,-2.6493,-2.6492,-2.651,-2.6511,-2.6513,0,0,0,0,0,0,0,0,0,0,0,0,0,-2.6463,-2.6441,-2.6502,-2.6491,-2.6491,-2.6521,-2.6522,-2.6522,-2.6496,-2.6494,-2.6493,-2.6492,-2.6509,-2.6511,-2.6513,-2.6553,0,0,-2.6519,-2.652,0,0,0,0,0,0,0,0,-2.6462,-2.6466,-2.6493,-2.6492,-2.6491,-2.6505,-2.6506,-2.6532,-2.6496,-2.6494,-2.6493,-2.6491,-2.6509,-2.6511,-2.6518,-2.6554,-2.6555,-2.6519,-2.6521,-2.6521,-2.6522,0,0,0,0,0,0,0,-2.646,-2.6465,-2.6509,-2.6493,-2.6492,-2.6485,-2.6487,-2.6511,-2.6509,-2.6494,-2.6492,-2.6495,-2.6509,-2.6516,-2.6518,-2.6555,-2.6519,-2.6521,-2.6522,-2.6523,-2.6627,-2.6629,0,0,0,0,0,0,-2.646,-2.6463,-2.6509,-2.651,-2.6473,-2.6488,-2.649,-2.6502,-2.6509,-2.6509,-2.6496,-2.6494,-2.6513,-2.6516,-2.6518,-2.6567,-2.6521,-2.6523,-2.6524,-2.6626,-2.6627,-2.6629,0,0,0,0,0,0,-2.6459,-2.6465,-2.6508,-2.6486,-2.6491,-2.649,-2.6504,-2.6503,-2.651,-2.651,-2.651,-2.6504,-2.6512,-2.6516,-2.6545,-2.6568,-2.6524,-2.6526,-2.6624,-2.6626,-2.6628,-2.6665,0,0,0,0,0,0,-2.6457,-2.6464,-2.648,-2.6487,-2.6492,-2.6535,-2.6505,-2.6504,-2.6514,-2.6511,-2.6518,-2.6517,-2.6511,-2.6543,-2.6547,-2.657,-2.6528,-2.6622,-2.6625,-2.6628,-2.6662,-2.6668,-2.6674,0,0,0,0,0,-2.6455,-2.6489,-2.6481,-2.6487,-2.6512,-2.6537,-2.654,-2.6533,-2.6516,-2.6532,-2.6532,-2.6517,-2.6564,-2.6546,-2.6551,-2.6574,-2.662,-2.6624,-2.6627,-2.6659,-2.6667,-2.6674,0,0,0,0,0,0,-2.6483,-2.6489,-2.6481,-2.6518,-2.6527,-2.6532,-2.6552,-2.6541,-2.6555,-2.6551,-2.6541,-2.6543,-2.6575,-2.6577,-2.6557,-2.6614,-2.6589,-2.6594,-2.6612,-2.6619,-2.6625,-2.6624,-2.6529,0,0,0,0,0,-2.6494,-2.6514,-2.6518,-2.655,-2.6555,-2.6553,-2.6563,-2.6557,-2.6566,-2.6569,-2.6572,-2.658,-2.6597,-2.6608,-2.6623,-2.6662,-2.6663,-2.668,-2.6686,-2.6691,-2.6696,-2.6717,-2.6725,-2.6641,-2.6641,-2.6641,0,0,-2.6516,-2.6521,-2.6534,-2.6556,-2.6562,-2.6583,-2.6556,-2.6579,-2.6594,-2.6572,-2.6601,-2.6603,-2.6612,-2.6647,-2.6662,-2.665,-2.6719,-2.6696,-2.67,-2.6701,-2.6722,-2.673,-2.6737,-2.6643,-2.6643,-2.6642,0,0,-2.6566,-2.6572,-2.6601,-2.6608,-2.6619,-2.6617,-2.6624,-2.6631,-2.6632,-2.6661,-2.6646,-2.6663,-2.6692,-2.6699,-2.6707,-2.6762,-2.6749,-2.6767,-2.6798,-2.682,-2.6826,-2.6832,-2.6853,-2.686,-2.6771,-2.6771,-2.6771,0,-2.6592,-2.6623,-2.6616,-2.6641,-2.6651,-2.6633,-2.6662,-2.6669,-2.6684,-2.6691,-2.6677,-2.6713,-2.6718,-2.6755,-2.6768,-2.6774,-2.6782,-2.6766,-2.6826,-2.6832,-2.6837,-2.6857,-2.6865,-2.6773,-2.6773,-2.6773,-2.6772,0,-2.6655,-2.6677,-2.6698,-2.6715,-2.6727,-2.6753,-2.6749,-2.6762,-2.6755,-2.6755,-2.6785,-2.679,-2.6807,-2.6815,-2.6808,-2.6851,-2.6843,-2.6828,-2.6803,-2.6848,-2.6866,-2.6873,-2.6776,-2.6776,-2.6775,-2.6774,0,0,-2.6723,-2.6737,-2.6745,-2.6753,-2.6764,-2.678,-2.6805,-2.6823,-2.6835,-2.6846,-2.6867,-2.6892,-2.6879,-2.6887,-2.688,-2.6899,-2.6944,-2.6881,-2.6881,-2.6894,-2.6993,-2.7006,-2.7014,-2.6935,-2.6936,-2.6937,-2.6993,0,-2.6775,-2.6821,-2.6816,-2.6859,-2.6879,-2.6864,-2.6886,-2.6895,-2.6895,-2.6912,-2.6912,-2.6931,-2.6911,-2.6916,-2.6934,-2.6935,-2.6964,-2.693,-2.6955,-2.6956,-2.6954,-2.7024,-2.7037,-2.7089,-2.7,-2.7001,-2.7002,0,-2.6842,-2.6857,-2.6903,-2.6912,-2.692,-2.6941,-2.6957,-2.6973,-2.6983,-2.6982,-2.6993,-2.6983,-2.7008,-2.6982,-2.7017,-2.6995,-2.7004,-2.7006,-2.7008,-2.7011,-2.6982,-2.7029,-2.7105,-2.7113,-2.7013,-2.7012,-2.7011,0,-2.6889,-2.692,-2.6952,-2.6959,-2.697,-2.6985,-2.699,-2.6999,-2.701,-2.7024,-2.7031,-2.7047,-2.7056,-2.7069,-2.7064,-2.7045,-2.71,-2.7073,-2.71,-2.71,-2.7113,-2.7113,-2.7192,-2.7117,-2.7117,-2.7117,-2.7117,0,-2.6948,-2.6977,-2.6974,-2.6994,-2.7026,-2.7019,-2.7051,-2.7054,-2.7062,-2.7081,-2.7068,-2.7086,-2.7078,-2.7096,-2.7092,-2.7122,-2.7126,-2.7126,-2.7125,-2.7128,-2.7128,-2.7135,-2.7131,-2.7119,-2.7119,-2.7118,-2.7118,0,-2.7006,-2.7005,-2.704,-2.7048,-2.7051,-2.7074,-2.7081,-2.7099,-2.7099,-2.7124,-2.713,-2.7129,-2.715,-2.7146,-2.7168,-2.7165,-2.7203,-2.7197,-2.7201,-2.72,-2.7227,-2.7225,-2.7315,-2.7327,-2.7243,-2.7244,-2.7245,0,-2.7045,-2.7067,-2.7078,-2.7091,-2.7098,-2.7119,-2.7131,-2.7125,-2.7138,-2.7152,-2.7168,-2.7188,-2.7204,-2.7237,-2.7238,-2.7255,-2.725,-2.728,-2.7252,-2.7255,-2.7252,-2.7251,-2.7254,-2.7286,-2.7287,-2.7288,-2.7288,0,-2.7113,-2.7112,-2.7131,-2.715,-2.7165,-2.7179,-2.7191,-2.7202,-2.7198,-2.7213,-2.7235,-2.7247,-2.727,-2.729,-2.7306,-2.731,-2.7299,-2.7297,-2.7304,-2.7308,-2.731,-2.7311,-2.7217,-2.7295,-2.7294,-2.7294,-2.7294,-2.7293,-2.7163,-2.7183,-2.7195,-2.7216,-2.7226,-2.7238,-2.7256,-2.7259,-2.7277,-2.7297,-2.7292,-2.7317,-2.7327,-2.7347,-2.7354,-2.7373,-2.7361,-2.7372,-2.7375,-2.7378,-2.7382,-2.7307,-2.7375,-2.7375,-2.7375,-2.7375,-2.7375,0,-2.7232,-2.724,-2.7259,-2.7279,-2.7296,-2.7284,-2.7298,-2.7312,-2.7335,-2.7345,-2.7362,-2.7387,-2.7406,-2.7409,-2.7428,-2.7442,-2.7438,-2.7448,-2.7447,-2.7448,-2.739,-2.7383,-2.7451,-2.7451,-2.7451,-2.7451,-2.7451,-2.7451,-2.7271,-2.7304,-2.7304,-2.7342,-2.7348,-2.7374,-2.7383,-2.7394,-2.7403,-2.7432,-2.7449,-2.7451,-2.7459,-2.7478,-2.7495,-2.7496,-2.7503,-2.7516,-2.7514,-2.746,-2.7452,-2.7445,-2.7438,-2.7517,-2.7517,-2.7571,-2.7572,-2.7572]}]]